This is the latest recevied weather packets stored in our database for station/object W0CHP-13. If no packets are shown the sender has not sent any weather packets the latest 10 day(s).
| Time | Temp. | Humidity | Pressure | Rain* | Wind** | Luminosity | Snow |
|---|---|---|---|---|---|---|---|
| 1778124196 | 5° C | 51% | 1013.8 hPa | 0 mm | - | 0 W/m² | - |
| 1778123598 | 5° C | 50% | 1014.1 hPa | 0 mm | - | 0 W/m² | - |
| 1778122996 | 5° C | 50% | 1014.1 hPa | 0 mm | - | 0 W/m² | - |
| 1778122399 | 5.56° C | 50% | 1014.4 hPa | 0 mm | - | 0 W/m² | - |
| 1778121797 | 5.56° C | 48% | 1014.3 hPa | 0 mm | - | 0 W/m² | - |
| 1778121199 | 6.11° C | 47% | 1014.1 hPa | 0 mm | - | 0 W/m² | - |
| 1778120597 | 6.11° C | 47% | 1014.4 hPa | 0 mm | - | 0 W/m² | - |
| 1778119995 | 6.11° C | 47% | 1014.1 hPa | 0 mm | - | 0 W/m² | - |
| 1778119397 | 6.11° C | 45% | 1014.2 hPa | 0 mm | - | 0 W/m² | - |
| 1778118795 | 6.67° C | 45% | 1014.1 hPa | 0 mm | - | 0 W/m² | - |
| 1778118198 | 6.67° C | 44% | 1014.1 hPa | 0 mm | - | 0 W/m² | - |
| 1778117596 | 6.67° C | 43% | 1013.8 hPa | 0 mm | - | 0 W/m² | - |
| 1778116998 | 7.22° C | 43% | 1014.1 hPa | 0 mm | - | 1 W/m² | - |
| 1778116396 | 7.22° C | 43% | 1013.8 hPa | 0 mm | - | 3 W/m² | - |
| 1778115798 | 7.78° C | 42% | 1013.9 hPa | 0 mm | - | 7 W/m² | - |
| 1778115197 | 7.78° C | 42% | 1013.9 hPa | 0 mm | - | 13 W/m² | - |
| 1778114599 | 7.78° C | 41% | 1013.9 hPa | 0 mm | - | 16 W/m² | - |
| 1778113997 | 7.78° C | 40% | 1013.7 hPa | 0 mm | - | 21 W/m² | - |
| 1778113395 | 8.33° C | 40% | 1013.9 hPa | 0 mm | - | 38 W/m² | - |
| 1778112797 | 8.33° C | 41% | 1014.1 hPa | 0 mm | - | 43 W/m² | - |
| 1778112195 | 8.33° C | 39% | 1014.1 hPa | 0 mm | - | 67 W/m² | - |
| 1778111597 | 8.89° C | 39% | 1013.7 hPa | 0 mm | - | 51 W/m² | - |
| 1778110996 | 8.89° C | 39% | 1013.9 hPa | 0 mm | - | 98 W/m² | - |
| 1778110397 | 8.89° C | 40% | 1014.1 hPa | 0 mm | - | 106 W/m² | - |
| 1778109796 | 8.89° C | 39% | 1014.1 hPa | 0 mm | - | 97 W/m² | - |
* Rain latest hour (hover to see other rain measurements)
** Current wind speed in m/s (hover to see current wind gust speed)